Terminal Aerodrome Forecast
Issued by NWS Memphis, TN

Home | Current Version | Previous Version | Text Only | Print | Product List | Glossary On
Versions: 1 2 3 4 5 6 7 8 9 10 11 12 13 14 15 16 17 18 19 20 21 22 23 24 25 26 27 28 29 30 31 32 33 34 35 36
000
FTUS44 KMEG 252324
TAFMEM
TAF
KMEM 252324Z 2600/2624 36007KT P6SM SKC
     FM260200 VRB03KT P6SM FEW150
     FM261000 VRB03KT P6SM BKN150
     FM261500 05006KT P6SM BKN120=

USA.gov is the U.S. government's official web portal to all federal, state and local government web resources and services.